User: anonymous   Login
Location: Celina Elementary School
(33.3262°N, 96.7767°W)
Time: 15:43:53
(UTC+00:00)
Language:

SKYMED 2 - Orbit

View from above orbital plane
View from above orbital plane
View from above satellite
View from above satellite

Ground track
Ground track

The orbit data is extracted from the following two-line orbital elements,

1 32376U 07059A   22146.15706484  .00000372  00000-0  53269-4 0  9993
2 32376  97.8887 330.1414 0001511  89.6911 270.4356 14.82164159782407
Epoch (UTC): 26 May 2022 03:46:10
Eccentricity: 0.0001511
inclination: 97.8887°
perigee height: 621 km
apogee height: 623 km
right ascension of ascending node: 330.1414°
argument of perigee: 89.6911°
revolutions per day: 14.82164159
mean anomaly at epoch: 270.4356°
orbit number at epoch: 78240

The dashed part of the orbit path shows where the satellite is in the earth's shadow,  

DLR